{"data":{"norad_id":68446,"intl_designator":"2026-067AG","name":"HADES-SA (SPINNYONE)","alt_names":[],"object_type":"PAYLOAD","status":"ACTIVE","operator":null,"country":"SPN","launch_date":"2026-03-30","launch_site_code":"AFWTR","launch_vehicle":null,"mission":null,"orbit_class":"UNKNOWN","rcs_meters":null,"size_class":null,"mass_kg":null,"dimensions":null,"purposes":[],"wikipedia_slug":null,"has_3d_model":false,"image_url":null,"decayed_at":null,"tle_current":{"epoch":"2026-05-24T19:56:03.869376Z","epoch_age_seconds":89652,"freshness":"FRESH","line1":"1 68446U 26067AG  26144.83060034  .00016667  00000+0  81764-3 0  9994","line2":"2 68446  97.4390 103.4941 0008556 140.1456 220.0407 15.18147324  8389","mean_motion":15.18147324,"eccentricity":0.0008556,"inclination_deg":97.439,"raan_deg":103.4941,"arg_perigee_deg":140.1456,"mean_anomaly_deg":220.0407,"bstar":0.00081764,"rev_number":838,"period_min":94.852454517122,"perigee_km":505.54534267944,"apogee_km":517.33478695275,"semimajor_km":6889.5770648161,"source":"CELESTRAK","updated_at":"2026-05-25T13:38:07.840881Z"}}}